Weather History for Salinas, CA

Change the Weather History Date:

Tuesday, July 30, 2013

  Actual Average Record
Temperature  
Mean Temperature 64 °F 63 °F  
Max Temperature 70 °F 71 °F 84 °F (1977)
Min Temperature 58 °F 56 °F 46 °F (1930)
Degree Days  
Heating Degree Days 1 2  
Month to date heating degree days 67 80  
Since 1 June heating degree days 165 193  
Since 1 July heating degree days 67 80  
Cooling Degree Days 0 0  
Month to date cooling degree days 13 26  
Year to date cooling degree days 47 54  
Since 1 June cooling degree days 37 38  
Growing Degree Days 14 (Base 50)    
Moisture  
Dew Point 53 °F    
Average Humidity 69    
Maximum Humidity 80    
Minimum Humidity 57    
Precipitation  
Precipitation 0.00 in 0.00 in 0.22 in (1966)
Month to date precipitation T 0.00  
Year to date precipitation 2.33 8.72  
Since 1 July precipitation T 0.00  
Sea Level Pressure  
Sea Level Pressure 30.12 in    
Wind  
Wind Speed 7 mph (WNW)    
Max Wind Speed 17 mph    
Max Gust Speed 22 mph    
Visibility 8 miles    
Events      
T = Trace of Precipitation, MM = Missing Value Source: NWS Daily Summary

Daily Weather History Graph

Daily Weather History Graph

Search for Another Location

Airport:

Trip Planner

Search our weather history database for the weather conditions in past years. The results will help you decide how hot, cold, wet, or windy it might be!

Date:

Astronomy

Jul. 30, 2013 Rise Set
Actual Time 6:11 AM PDT 8:14 PM PDT
Civil Twilight 5:42 AM PDT 8:42 PM PDT
Nautical Twilight 5:07 AM PDT 9:17 PM PDT
Astronomical Twilight 4:29 AM PDT 9:55 PM PDT
Moon 12:30 AM PDT (7/30) 2:39 PM PDT (7/30)
Length of Visible Light 15h 00m
Length of Day
14h 03m
Last Quarter, 40% of the Moon is Illuminated
Jul 30
Last Quarter
Aug 6
New
Aug 14
First Quarter
Aug 20
Full
Aug 28
Last Quarter

Hourly Weather History & Observations

Time (PDT) Temp. Dew Point Humidity Pressure Visibility Wind Dir Wind Speed Gust Speed Precip Events Conditions
12:53 AM 60.1 °F 53.1 °F 78% 30.09 in 10.0 mi NW 3.5 mph - N/A   Overcast
1:53 AM 59.0 °F 53.1 °F 81% 30.09 in 10.0 mi West 4.6 mph - N/A   Overcast
2:53 AM 59.0 °F 53.1 °F 81% 30.08 in 10.0 mi Calm Calm - N/A   Overcast
3:53 AM 59.0 °F 53.1 °F 81% 30.08 in 10.0 mi Calm Calm - N/A   Overcast
4:53 AM 59.0 °F 53.1 °F 81% 30.08 in 10.0 mi NE 4.6 mph - N/A   Overcast
5:53 AM 59.0 °F 53.1 °F 81% 30.09 in 10.0 mi East 3.5 mph - N/A   Overcast
6:53 AM 59.0 °F 53.1 °F 81% 30.11 in 7.0 mi East 3.5 mph - N/A   Overcast
7:53 AM 59.0 °F 53.1 °F 81% 30.13 in 7.0 mi Calm Calm - N/A   Overcast
8:53 AM 60.1 °F 54.0 °F 80% 30.14 in 7.0 mi Calm Calm - N/A   Overcast
9:53 AM 62.1 °F 54.0 °F 75% 30.14 in 6.0 mi Calm Calm - N/A   Haze
10:53 AM 64.0 °F 54.0 °F 70% 30.14 in 7.0 mi West 9.2 mph - N/A   Mostly Cloudy
11:07 AM 66.2 °F 53.6 °F 64% 30.12 in 7.0 mi West 5.8 mph - N/A   Scattered Clouds
11:53 AM 66.0 °F 54.0 °F 65% 30.14 in 8.0 mi West 9.2 mph - N/A   Clear
12:53 PM 68.0 °F 54.0 °F 61% 30.14 in 9.0 mi WNW 12.7 mph - N/A   Clear
1:53 PM 69.1 °F 54.0 °F 58% 30.14 in 9.0 mi WNW 12.7 mph - N/A   Clear
2:53 PM 69.1 °F 54.0 °F 58% 30.13 in 9.0 mi NW 15.0 mph - N/A   Clear
3:53 PM 68.0 °F 54.0 °F 61% 30.12 in 9.0 mi West 15.0 mph - N/A   Clear
4:53 PM 66.0 °F 54.0 °F 65% 30.11 in 7.0 mi West 13.8 mph - N/A   Clear
5:53 PM 64.9 °F 54.0 °F 68% 30.11 in 6.0 mi WNW 13.8 mph - N/A   Haze
6:53 PM 62.1 °F 53.1 °F 72% 30.11 in 6.0 mi WNW 10.4 mph - N/A   Haze
7:27 PM 60.8 °F 53.6 °F 77% 30.08 in 6.0 mi WNW 11.5 mph - N/A   Haze
7:53 PM 61.0 °F 53.1 °F 75% 30.11 in 6.0 mi WNW 12.7 mph - N/A   Haze
8:53 PM 60.1 °F 53.1 °F 78% 30.12 in 7.0 mi WNW 9.2 mph - N/A   Overcast
9:53 PM 60.1 °F 53.1 °F 78% 30.14 in 8.0 mi WNW 9.2 mph - N/A   Overcast
10:53 PM 60.1 °F 53.1 °F 78% 30.14 in 7.0 mi West 6.9 mph - N/A   Overcast